Powrót do katalogu

COSMOS 2251 DEB

AktywnyLEO
NORAD 33990·DEBRIS·🇷🇺 Russia

Wystrzelony Jun 16, 1993 z Plesetsk Cosmodrome

Loading…

Następne Przeloty (najbliższe 24 godziny)

TLE

ŚwieżeSource: Space-Track

Epoka: Sep 14, 2026, 13:32 UTC

1 33990U 93036FZ  26257.56414532  .00000206  00000-0  21265-3 0  9994
2 33990  73.9270 203.0623 0404762 172.3969 306.8687 13.50299914864526

Śledź COSMOS 2251 DEB w czasie rzeczywistym z AllMySat

Download on the App Store